Wind_Speed
9 8 8 7 7 7 7 8 8 8 8 8 7 7 8 8 8 7 7 7 7 6 6 6 6 7 7 7 8 8 9 9 9 10 11 11 11 11 11 12 12 13 13
10 9 8 8 8 9 9 9 9 9 8 8 8 8 8 8 7 7 7 7 7 7 7 7 7 7 8 8 8 8 9 10 10 11 12 12 13 13 13 13 14 14 15
11 11 10 10 10 10 10 10 10 9 9 8 8 8 8 8 8 8 8 7 8 8 8 8 8 8 9 8 9 9 10 10 11 11 12 13 13 14 14 15 15 15 15
12 12 12 11 11 11 11 11 11 10 10 9 9 8 8 8 8 9 9 9 9 9 10 10 10 10 9 10 10 11 11 11 12 12 13 13 14 14 15 15 15 16 16
12 12 12 12 12 12 12 12 12 11 10 10 10 10 10 9 9 10 10 10 10 10 11 11 11 11 11 11 12 12 12 12 13 13 14 14 14 15 15 15 16 16 17
12 12 12 12 13 13 12 13 13 12 12 12 12 11 12 11 11 11 11 11 11 11 11 12 12 12 12 13 13 13 14 14 14 14 15 15 15 15 15 16 16 17 18
13 13 13 12 13 13 13 14 14 14 13 13 13 13 13 13 13 13 12 12 12 13 13 13 13 14 14 14 15 15 15 15 15 15 15 16 16 16 17 17 18 19 19
15 14 14 14 14 14 14 14 14 15 15 15 14 14 15 14 14 14 14 14 14 14 14 14 14 15 15 15 15 15 15 16 16 17 17 17 17 17 18 19 20 21 21
16 15 15 15 15 15 15 15 15 15 16 16 16 16 16 16 15 15 16 16 16 16 16 16 16 16 16 16 16 16 17 17 17 18 18 18 19 20 20 21 22 23 23
17 16 16 16 16 16 16 16 16 16 16 17 17 17 17 17 17 17 17 17 17 17 18 18 18 18 17 17 17 17 18 18 19 19 19 20 20 21 22 23 24 25 25
20 19 18 18 18 18 17 17 17 18 18 17 17 18 18 18 18 18 18 19 19 19 19 20 20 19 19 19 19 20 20 20 20 21 22 22 23 23 24 25 26 27 28
23 22 20 19 19 19 19 19 19 19 19 19 19 19 20 21 21 20 20 20 21 21 21 21 22 22 22 22 22 22 22 23 23 24 24 24 25 26 27 27 28 29 30
24 24 23 22 21 21 20 20 20 20 21 20 20 21 21 22 22 22 22 23 23 23 23 23 23 24 24 24 24 25 25 25 25 26 26 26 27 28 29 29 30 31 31
25 25 25 24 24 23 23 22 22 22 22 22 22 22 23 23 23 24 24 24 25 25 25 25 25 26 26 26 26 27 27 27 27 27 28 29 30 30 30 31 32 33 33
26 27 27 26 26 25 24 24 24 24 24 24 24 24 25 25 25 26 26 27 27 27 27 27 27 27 27 28 28 29 29 29 30 30 31 31 32 33 34 34 34 35 35
28 28 27 28 27 27 26 26 26 26 26 26 27 27 26 27 27 28 28 28 29 29 29 29 30 30 29 30 30 31 31 31 32 32 33 34 34 35 35 35 35 35 36
27 28 28 28 29 29 28 27 27 27 28 28 28 29 28 29 29 29 29 30 30 30 30 31 31 32 32 32 32 33 33 33 34 35 35 36 36 36 36 36 37 37 37
28 29 29 29 29 30 30 30 30 29 29 30 30 30 30 31 31 32 32 32 31 31 31 32 32 33 33 33 34 34 35 36 36 37 37 37 37 37 37 38 38 38 38
30 30 31 31 31 31 32 32 32 31 31 31 31 31 32 32 32 33 33 33 33 33 33 33 33 33 34 34 35 35 36 37 38 38 38 39 39 39 39 39 39 39 39
31 31 32 32 32 33 33 33 33 33 32 32 32 32 33 34 34 34 34 34 34 34 34 34 35 34 35 36 36 36 36 37 38 38 39 40 41 41 41 41 40 40 40
30 31 31 32 32 33 33 34 33 33 32 32 32 33 34 34 35 36 35 35 35 35 35 35 36 37 37 37 37 38 38 38 39 39 40 41 42 41 41 41 41 41 41
30 30 31 31 32 33 33 33 33 33 33 32 33 34 34 35 35 35 36 36 36 36 36 37 37 38 38 39 39 39 40 40 41 41 42 42 42 42 42 42 42 42 42
29 30 30 31 32 32 32 32 32 32 33 33 34 35 35 35 35 35 35 36 36 37 38 38 38 38 39 39 40 40 41 42 42 43 43 43 43 42 42 42 42 41 42
29 29 30 30 31 31 32 32 32 32 33 34 35 35 35 35 36 36 36 36 37 38 37 38 38 38 39 39 40 41 42 42 43 43 43 43 43 43 43 43 42 41 41
29 29 30 30 30 31 31 31 32 32 33 35 35 36 36 36 36 37 36 36 37 37 37 38 38 38 39 39 40 41 41 42 42 43 43 43 43 43 43 43 42 41 41
30 30 30 30 30 31 31 32 32 33 34 34 35 36 36 36 37 37 37 36 36 36 37 38 38 38 39 40 40 40 40 41 41 41 42 41 41 42 42 41 41 41 41
Wind_Direction
291 287 281 278 272 271 274 279 283 285 290 292 291 296 295 294 292 286 287 291 293 292 294 297 290 287 287 287 289 291 293 290 286 282 281 282 285 286 287 288 290 292 293
288 284 279 275 275 274 273 277 279 280 284 287 288 288 291 291 289 287 286 288 287 288 291 295 292 288 287 285 289 292 292 289 286 285 284 285 286 285 285 288 289 290 291
284 281 275 273 274 274 274 274 277 278 279 282 284 285 287 285 284 285 283 285 285 286 288 293 289 288 289 287 289 293 294 291 288 286 285 287 289 288 288 290 292 292 294
283 281 275 275 273 273 273 273 274 277 277 277 278 279 284 284 282 285 285 282 284 285 286 288 288 288 291 293 292 292 293 290 287 286 285 286 288 289 289 290 293 294 296
281 280 274 274 275 274 271 272 273 273 274 273 275 276 278 282 280 284 285 283 283 283 284 285 287 287 291 292 292 290 290 289 287 287 287 286 288 289 289 289 291 294 295
276 275 275 276 275 274 272 271 271 271 271 270 271 273 275 277 278 280 282 282 283 284 284 284 286 288 286 290 289 290 291 290 290 288 287 286 288 289 290 291 291 294 295
273 271 271 275 276 273 274 273 271 273 272 269 270 272 272 273 275 277 281 280 280 281 283 285 286 287 286 286 287 287 288 289 290 289 289 288 289 289 290 292 295 295 295
273 270 268 271 273 273 274 274 273 273 272 270 270 270 271 272 274 276 279 280 280 280 281 283 286 287 287 289 288 287 287 287 287 286 285 285 285 287 291 292 294 295 295
270 268 269 270 271 273 275 275 273 273 273 271 269 269 269 270 273 276 276 277 279 279 280 282 285 287 289 290 290 290 289 289 288 287 285 286 287 288 290 291 292 293 294
270 269 270 274 273 273 273 273 272 272 273 272 271 269 270 270 271 273 275 276 277 278 279 281 283 285 287 288 288 289 290 292 292 291 290 289 289 289 290 290 292 293 294
269 271 271 272 273 274 273 272 272 271 272 271 271 270 272 272 271 271 274 276 276 276 277 279 282 284 285 285 285 287 288 289 289 291 292 292 292 291 291 291 290 291 293
268 270 270 269 270 271 272 272 271 270 269 269 269 271 273 273 274 273 273 274 275 276 277 278 279 282 283 283 284 285 286 286 287 289 290 290 291 292 292 292 292 293 294
266 267 268 268 268 268 270 270 270 269 268 268 269 270 272 275 276 276 275 276 277 278 278 279 279 281 282 283 283 284 285 285 287 288 289 290 291 292 292 292 292 293 295
266 266 267 267 267 267 268 269 269 269 268 267 268 270 272 274 276 277 278 278 278 279 279 279 280 280 280 282 283 284 284 285 287 288 289 289 289 291 291 292 293 294 295
263 264 265 266 266 266 266 267 268 269 270 270 270 272 273 274 275 276 277 280 280 279 279 279 280 280 280 281 282 283 283 285 286 287 288 289 289 290 291 291 292 293 294
262 263 265 265 265 265 266 267 268 268 269 272 271 271 274 275 275 276 277 278 279 280 280 280 280 279 279 280 281 282 283 283 284 286 288 290 290 291 291 292 293 294 294
263 263 265 265 264 264 265 266 268 269 270 272 273 272 274 276 277 278 278 279 280 281 281 281 281 279 278 278 280 282 283 283 284 286 288 289 291 291 291 291 292 293 293
264 264 265 265 264 264 265 266 268 270 271 272 273 273 274 276 278 278 279 280 281 281 281 282 282 280 279 278 278 280 281 282 284 286 287 289 290 290 290 291 291 291 292
266 265 265 265 265 265 266 268 269 270 270 271 272 274 275 276 277 278 279 279 280 281 281 281 281 280 279 278 279 280 282 283 284 285 287 288 289 289 290 290 290 290 291
267 265 264 264 264 265 266 268 269 270 271 271 272 273 275 276 278 278 279 278 279 280 280 281 281 280 280 280 279 279 281 283 285 286 287 288 288 288 289 289 290 290 290
268 265 264 264 265 266 266 267 269 271 272 271 273 274 276 278 279 278 278 279 279 280 281 281 281 281 281 280 279 280 281 283 285 287 288 288 288 288 288 288 289 290 290
267 266 265 266 267 267 267 268 268 270 271 271 273 275 277 278 279 280 279 279 279 280 280 281 282 282 282 281 280 280 281 282 284 286 287 287 288 288 288 288 289 289 289
269 268 267 267 267 268 269 269 270 270 271 272 274 275 277 278 279 280 280 280 281 280 281 281 283 284 284 282 281 280 281 282 284 285 286 287 287 287 287 287 288 288 289
271 270 269 268 267 268 269 269 270 271 272 273 275 276 277 278 279 280 281 281 281 281 282 283 284 285 285 284 283 282 282 283 285 285 285 285 286 286 287 287 287 287 288
271 271 270 268 268 268 269 270 271 272 273 275 276 277 278 278 280 280 281 281 281 282 282 282 282 284 285 285 284 284 285 285 285 285 285 285 286 286 287 288 287 287 287
270 271 270 269 268 268 269 271 273 274 275 276 277 278 278 279 279 279 280 281 282 282 283 283 284 285 286 287 287 287 287 286 286 286 286 285 286 287 287 287 286 287 287
Height
5830 5830 5829 5829 5829 5828 5828 5828 5827 5827 5826 5825 5825 5824 5823 5823 5822 5821 5821 5820 5819 5819 5818 5817 5817 5816 5815 5814 5813 5812 5812 5811 5810 5810 5809 5809 5808 5808 5807 5805 5804 5803 5802
5827 5827 5827 5826 5826 5826 5826 5825 5825 5824 5824 5823 5823 5822 5821 5821 5820 5819 5819 5818 5817 5816 5816 5815 5814 5813 5813 5812 5811 5810 5809 5808 5808 5807 5806 5806 5805 5804 5803 5802 5801 5800 5798
5824 5824 5823 5823 5823 5823 5823 5822 5822 5822 5821 5821 5820 5820 5819 5818 5817 5817 5816 5815 5815 5814 5813 5813 5812 5811 5810 5809 5809 5808 5807 5806 5805 5805 5804 5803 5802 5801 5800 5799 5797 5796 5794
5821 5820 5820 5820 5820 5819 5819 5819 5819 5819 5818 5818 5818 5817 5816 5816 5815 5814 5813 5813 5812 5811 5811 5810 5809 5808 5807 5807 5806 5805 5804 5803 5802 5801 5801 5800 5799 5797 5796 5795 5793 5791 5790
5817 5817 5816 5816 5816 5815 5815 5815 5815 5815 5815 5815 5814 5814 5813 5813 5812 5811 5811 5810 5809 5809 5808 5807 5806 5805 5805 5804 5803 5802 5801 5800 5799 5798 5797 5796 5795 5794 5792 5791 5789 5787 5786
5814 5813 5812 5812 5812 5811 5811 5811 5811 5811 5811 5811 5810 5810 5810 5809 5809 5808 5807 5807 5806 5805 5805 5804 5803 5802 5801 5801 5800 5798 5798 5796 5795 5794 5793 5792 5791 5789 5788 5786 5785 5783 5781
5809 5809 5809 5808 5808 5808 5807 5807 5807 5807 5807 5807 5806 5806 5806 5805 5805 5804 5803 5803 5802 5802 5801 5800 5800 5799 5798 5797 5796 5795 5794 5792 5791 5790 5789 5788 5786 5785 5784 5782 5780 5778 5776
5805 5804 5804 5804 5804 5803 5803 5803 5803 5803 5802 5802 5802 5802 5801 5801 5800 5800 5799 5799 5798 5798 5797 5796 5795 5794 5793 5792 5791 5790 5789 5788 5787 5786 5785 5783 5781 5780 5778 5777 5775 5773 5771
5800 5799 5799 5799 5799 5799 5798 5798 5798 5798 5798 5797 5797 5797 5797 5796 5796 5796 5795 5794 5794 5793 5793 5792 5791 5790 5789 5788 5787 5786 5784 5783 5782 5780 5779 5777 5776 5774 5773 5771 5769 5767 5765
5794 5794 5794 5794 5793 5793 5793 5793 5793 5793 5793 5792 5792 5792 5791 5791 5791 5791 5790 5789 5789 5788 5788 5787 5786 5785 5784 5783 5782 5781 5779 5778 5776 5775 5773 5772 5770 5768 5766 5764 5762 5760 5758
5788 5788 5788 5788 5788 5788 5788 5787 5787 5787 5787 5787 5786 5786 5786 5786 5785 5785 5784 5784 5783 5783 5782 5781 5780 5780 5779 5777 5776 5775 5774 5772 5771 5769 5767 5765 5763 5761 5759 5757 5755 5753 5750
5781 5781 5782 5782 5782 5782 5781 5781 5781 5781 5781 5781 5780 5780 5780 5780 5779 5779 5778 5778 5777 5777 5776 5775 5774 5773 5772 5771 5770 5769 5767 5766 5764 5763 5761 5759 5756 5754 5752 5749 5747 5744 5742
5774 5774 5774 5775 5775 5775 5775 5775 5775 5775 5775 5775 5774 5774 5774 5773 5773 5772 5772 5771 5770 5770 5769 5768 5767 5767 5766 5764 5763 5762 5760 5759 5757 5755 5753 5751 5749 5746 5744 5741 5738 5736 5733
5766 5766 5767 5767 5768 5768 5768 5768 5768 5768 5768 5768 5768 5767 5767 5766 5766 5765 5764 5764 5763 5762 5761 5761 5760 5759 5758 5757 5755 5754 5752 5751 5749 5747 5745 5743 5740 5738 5735 5732 5729 5727 5724
5758 5758 5758 5759 5759 5760 5760 5760 5761 5761 5760 5760 5760 5760 5759 5759 5758 5757 5757 5756 5755 5754 5753 5752 5751 5750 5749 5748 5747 5745 5744 5742 5740 5738 5736 5734 5731 5729 5726 5723 5720 5717 5714
5749 5750 5750 5750 5751 5751 5752 5752 5752 5752 5752 5752 5752 5752 5751 5751 5750 5749 5748 5747 5746 5745 5744 5743 5742 5741 5740 5739 5737 5736 5734 5732 5730 5728 5726 5724 5721 5718 5715 5712 5709 5706 5703
5740 5741 5741 5742 5742 5742 5743 5743 5743 5744 5743 5743 5743 5742 5742 5741 5741 5740 5739 5737 5736 5735 5734 5733 5732 5730 5729 5728 5727 5726 5724 5722 5720 5718 5716 5713 5710 5708 5705 5702 5698 5695 5692
5731 5732 5732 5732 5733 5733 5734 5734 5734 5734 5734 5733 5733 5733 5732 5731 5730 5729 5728 5727 5726 5725 5723 5722 5721 5720 5718 5717 5716 5714 5713 5711 5709 5707 5705 5702 5699 5696 5693 5690 5687 5683 5680
5721 5722 5722 5723 5723 5723 5724 5724 5724 5724 5724 5723 5723 5722 5722 5721 5720 5719 5718 5716 5715 5714 5713 5711 5710 5708 5707 5706 5704 5703 5701 5699 5697 5695 5693 5690 5687 5685 5682 5678 5675 5671 5668
5710 5711 5711 5712 5712 5713 5713 5713 5713 5713 5713 5713 5712 5712 5711 5710 5709 5708 5707 5705 5704 5703 5701 5700 5699 5697 5695 5694 5692 5691 5689 5687 5685 5683 5681 5678 5675 5672 5669 5666 5662 5659 5656
5699 5699 5700 5701 5702 5702 5703 5703 5703 5703 5703 5702 5702 5701 5700 5699 5698 5696 5695 5694 5693 5691 5690 5688 5687 5685 5683 5682 5680 5678 5677 5675 5673 5671 5668 5665 5662 5659 5656 5653 5650 5646 5643
5689 5689 5689 5690 5691 5691 5691 5692 5692 5692 5692 5691 5691 5690 5689 5688 5686 5685 5684 5682 5681 5680 5678 5676 5675 5673 5671 5669 5667 5665 5664 5662 5660 5657 5655 5652 5649 5646 5643 5640 5637 5633 5630
5679 5679 5679 5679 5680 5680 5680 5681 5681 5681 5681 5680 5679 5678 5677 5676 5675 5673 5672 5670 5669 5667 5665 5664 5662 5660 5658 5656 5654 5652 5650 5648 5646 5644 5641 5638 5636 5633 5630 5627 5624 5620 5617
5669 5669 5669 5669 5669 5669 5670 5670 5670 5670 5669 5669 5668 5667 5665 5664 5663 5662 5660 5659 5657 5655 5653 5651 5649 5647 5645 5642 5640 5638 5636 5634 5632 5630 5627 5625 5622 5620 5617 5613 5610 5607 5604
5659 5659 5659 5659 5659 5659 5659 5659 5659 5659 5658 5657 5656 5655 5654 5653 5651 5650 5648 5647 5645 5643 5641 5639 5637 5635 5632 5630 5627 5625 5623 5620 5618 5615 5613 5611 5608 5606 5603 5600 5597 5594 5591
5649 5649 5649 5648 5648 5649 5649 5649 5648 5648 5647 5646 5645 5644 5642 5641 5640 5638 5636 5634 5633 5631 5628 5626 5624 5622 5619 5617 5614 5612 5609 5607 5604 5601 5599 5597 5595 5592 5589 5586 5583 5580 5578